Regional Weather Roundup
Issued by NWS

Home | Current Version | Previous Version | Graphics & Text | Print | Product List | Glossary On
Versions: 1 2 3 4 5 6 7 8 9 10 11 12 13 14 15 16 17 18 19 20 21 22 23 24 25 26 27 28 29 30 31 32 33 34 35 36 37 38 39 40 41 42 43 44 45 46 47 48 49 50
000
ASUS43 KLMK 040910
RWRKY
KENTUCKY REGIONAL WEATHER ROUNDUP
NATIONAL WEATHER SERVICE LOUISVILLE KY
500 AM EDT TUE AUG 04 2015

NOTE "FAIR" INDICATES FEW OR NO CLOUDS BELOW 12,000 FEET
WITH NO SIGNIFICANT WEATHER AND/OR OBSTRUCTIONS TO VISIBILITY.

KYZ001>023-026-027-061>063-070>075-041000-
WESTERN AND SOUTH CENTRAL KENTUCKY

CITY           SKY/WX    TMP DP  RH WIND       PRES   REMARKS
PADUCAH        CLEAR     72  70  93 CALM      29.92S
HENDERSON      PTCLDY    70  66  88 CALM      29.93S
OWENSBORO      PTCLDY    74  72  93 CALM      29.95R
HOPKINSVILLE   CLEAR     74  70  88 SW3       29.95R
BOWLING GREEN  PTCLDY    74  70  87 CALM      29.96R
GLASGOW        PTCLDY   N/A N/A N/A CALM      29.96S HAZE
$$

KYZ024-025-028>034-038-045-046-053-041000-
NORTH CENTRAL KENTUCKY

CITY           SKY/WX    TMP DP  RH WIND       PRES   REMARKS
LOUISVILLE/SDF MOCLDY    78  66  66 VRB3      29.94R
LOUISVILLE/LOU CLEAR     76  67  73 CALM      29.95R
FORT KNOX      FOG       68  66  94 W2        29.94R VSB 1/2
$$

KYZ035>037-039>044-047>052-055>060-089>105-041000-
NORTHEAST KENTUCKY

CITY           SKY/WX    TMP DP  RH WIND       PRES   REMARKS
LEXINGTON      CLEAR     69  65  86 S3        29.95S
COVINGTON      PTCLDY    67  65  93 CALM      29.94S
FRANKFORT      PTCLDY    68  65  90 CALM      29.94R
$$

KYZ054-064>069-076>088-106>120-041000-
SOUTHEAST KENTUCKY

CITY           SKY/WX    TMP DP  RH WIND       PRES   REMARKS
JACKSON        PTCLDY    66  64  93 S3        29.98S
LONDON         PTCLDY    69  63  81 CALM      30.00R
SOMERSET       CLEAR     70  70 100 CALM      29.99R
MIDDLESBORO    MOCLDY    70  68  93 CALM      30.03S
MONTICELLO     MOSUNNY   68  68 100 CALM      30.01R
$$



USA.gov is the U.S. government's official web portal to all federal, state and local government web resources and services.